Orbital Elements
Epoch 2019 Feb. 6.0 TT = JDT 2458520.5
T 2019 Jan. 18.18028 TT Rudenko
q 3.2518347 (2000.0) P Q
z -0.0007333 Peri. 167.61975 -0.34653327 -0.32822830
+/-0.0000004 Node 65.86759 -0.92164995 +0.29347746
e 1.0023847 Incl. 105.65753 -0.17457394 -0.89785141
From 2000 observations 2017 June 16-2021 Apr. 3, mean residual 1".0.
|